Location: Barcelona
(41.3830°N, 2.1830°E)
Time: 22:47:36
(UTC+01:00)

ISS - Pass Details

Date: 14 January 2018
Orbit: 402 x 407 km, 51.6° (Epoch: 23 January)

Event Time Altitude Azimuth Distance (km) Brightness Sun altitude
Exits shadow 06:16:27 47° 50° (NE) 549 -3.0 -21.9°
Drops below altitude 10° 06:19:21 10° 107° (ESE) 1,462 0.1 -21.4°
Sets 06:21:29 0° 113° (ESE) 2,320 1.4 -21.0°
